Weather History for Taylorville, IL

Change the Weather History Date:

Wednesday, September 12, 2012

  Actual Average (KSPI) Record (KSPI)
Temperature  
Mean Temperature 70 °F 68 °F  
Max Temperature 84 °F 81 °F 96 °F (1897)
Min Temperature 55 °F 56 °F 39 °F (1955)
Degree Days  
Heating Degree Days 0 1  
Month to date heating degree days 9  
Since 1 July heating degree days 14  
Cooling Degree Days 4 5  
Month to date cooling degree days 73  
Year to date cooling degree days 1043  
Growing Degree Days 20 (Base 50)    
Moisture  
Dew Point 56 °F    
Average Humidity 68    
Maximum Humidity 100    
Minimum Humidity 35    
Precipitation  
Precipitation 0.00 in 0.11 in 1.58 in (1949)
Month to date precipitation 1.19  
Year to date precipitation 26.84  
Snow  
Snow 0.00 in 0.00 in 0.00 in ()
Month to date snowfall 0.0  
Since 1 July snowfall 0.0  
Since 1 September snowfall 0.0  
Snow Depth -    
Sea Level Pressure  
Sea Level Pressure 30.15 in    
Wind  
Wind Speed 7 mph (South)    
Max Wind Speed 17 mph    
Max Gust Speed 21 mph    
Visibility 10 miles    
Events      
T = Trace of Precipitation, MM = Missing Value Source: NWS Daily Summary

Daily Weather History Graph

Daily Weather History Graph

Search for Another Location

Airport:

Trip Planner

Search our weather history database for the weather conditions in past years. The results will help you decide how hot, cold, wet, or windy it might be!

Date:

Astronomy

Sep. 12, 2012 Rise Set
Actual Time 6:36 AM CDT 7:09 PM CDT
Civil Twilight 6:09 AM CDT 7:36 PM CDT
Nautical Twilight 5:37 AM CDT 8:08 PM CDT
Astronomical Twilight 5:04 AM CDT 8:41 PM CDT
Moon 2:53 AM CDT (9/12) 4:57 PM CDT (9/12)
Length of Visible Light 13h 27m
Length of Day
12h 33m
Waning Crescent, 13% of the Moon is Illuminated
Sep 12
Waning Crescent
Sep 15
New
Sep 22
First Quarter
Sep 29
Full
Oct 8
Last Quarter

Hourly Weather History & Observations

Time (CDT) Temp. Heat Index Dew Point Humidity Pressure Visibility Wind Dir Wind Speed Gust Speed Precip Events Conditions
12:15 AM 59.0 °F - 55.4 °F 88% 30.12 in 10.0 mi SSE 3.5 mph - N/A   Clear
12:35 AM 57.2 °F - 53.6 °F 88% 30.12 in 10.0 mi SSE 5.8 mph - N/A   Clear
12:55 AM 57.2 °F - 55.4 °F 94% 30.13 in 10.0 mi South 3.5 mph - N/A   Clear
1:15 AM 57.2 °F - 55.4 °F 94% 30.13 in 10.0 mi South 5.8 mph - N/A   Clear
1:35 AM 57.2 °F - 55.4 °F 94% 30.14 in 10.0 mi South 5.8 mph - N/A   Clear
1:55 AM 57.2 °F - 55.4 °F 94% 30.13 in 10.0 mi South 5.8 mph - N/A   Clear
2:15 AM 57.2 °F - 55.4 °F 94% 30.13 in 10.0 mi South 5.8 mph - N/A   Clear
2:35 AM 57.2 °F - 55.4 °F 94% 30.14 in 10.0 mi South 4.6 mph - N/A   Clear
2:55 AM 57.2 °F - 55.4 °F 94% 30.14 in 10.0 mi South 4.6 mph - N/A   Clear
3:15 AM 57.2 °F - 55.4 °F 94% 30.14 in 10.0 mi Calm Calm - N/A   Clear
3:35 AM 57.2 °F - 55.4 °F 94% 30.13 in 10.0 mi SSE 3.5 mph - N/A   Clear
3:55 AM 55.4 °F - 53.6 °F 94% 30.13 in 10.0 mi SSE 5.8 mph - N/A   Clear
4:15 AM 55.4 °F - 53.6 °F 94% 30.13 in 10.0 mi SSE 5.8 mph - N/A   Clear
4:35 AM 55.4 °F - 55.4 °F 100% 30.14 in 10.0 mi SSE 6.9 mph - N/A   Clear
4:55 AM 55.4 °F - 55.4 °F 100% 30.14 in 10.0 mi SSE 5.8 mph - N/A   Clear
5:15 AM 55.4 °F - 55.4 °F 100% 30.14 in 10.0 mi SSE 5.8 mph - N/A   Clear
5:35 AM 55.4 °F - 53.6 °F 94% 30.15 in 10.0 mi SSE 3.5 mph - N/A   Clear
5:55 AM 55.4 °F - 53.6 °F 94% 30.15 in 10.0 mi SSE 4.6 mph - N/A   Clear
6:15 AM 55.4 °F - 55.4 °F 100% 30.16 in 10.0 mi SSE 5.8 mph - N/A   Clear
6:35 AM 57.2 °F - 55.4 °F 94% 30.16 in 10.0 mi SSE 4.6 mph - N/A   Clear
6:55 AM 57.2 °F - 55.4 °F 94% 30.17 in 10.0 mi South 5.8 mph - N/A   Clear
7:15 AM 57.2 °F - 55.4 °F 94% 30.17 in 10.0 mi SSE 6.9 mph - N/A   Clear
7:35 AM 60.8 °F - 57.2 °F 88% 30.18 in 10.0 mi SSE 5.8 mph - N/A   Clear
7:55 AM 62.6 °F - 59.0 °F 88% 30.18 in 10.0 mi SSE 5.8 mph - N/A   Clear
8:15 AM 64.4 °F - 59.0 °F 83% 30.18 in 10.0 mi South 5.8 mph - N/A   Clear
8:35 AM 66.2 °F - 59.0 °F 78% 30.18 in 10.0 mi South 8.1 mph - N/A   Clear
8:55 AM 69.8 °F - 60.8 °F 73% 30.19 in 10.0 mi South 8.1 mph - N/A   Clear
9:15 AM 71.6 °F - 59.0 °F 64% 30.19 in 10.0 mi South 8.1 mph - N/A   Clear
9:35 AM 73.4 °F - 59.0 °F 61% 30.19 in 10.0 mi SSW 9.2 mph - N/A   Clear
9:55 AM 75.2 °F - 59.0 °F 57% 30.19 in 10.0 mi SSW 9.2 mph - N/A   Clear
10:15 AM 77.0 °F - 59.0 °F 54% 30.19 in 10.0 mi South 10.4 mph - N/A   Clear
10:35 AM 78.8 °F - 59.0 °F 51% 30.19 in 10.0 mi SSW 10.4 mph 18.4 mph N/A   Clear
10:55 AM 80.6 °F 80.8 °F 57.2 °F 45% 30.19 in 10.0 mi South 11.5 mph 17.3 mph N/A   Clear
11:15 AM 80.6 °F 80.5 °F 55.4 °F 42% 30.18 in 10.0 mi South 11.5 mph - N/A   Clear
11:35 AM 82.4 °F 81.4 °F 53.6 °F 37% 30.18 in 10.0 mi SSW 10.4 mph 16.1 mph N/A   Clear
11:55 AM 82.4 °F 81.4 °F 53.6 °F 37% 30.17 in 10.0 mi South 12.7 mph 20.7 mph N/A   Clear
12:15 PM 82.4 °F 81.4 °F 53.6 °F 37% 30.17 in 10.0 mi South 12.7 mph 20.7 mph N/A   Clear
12:35 PM 82.4 °F 81.4 °F 53.6 °F 37% 30.17 in 10.0 mi South 11.5 mph 19.6 mph N/A   Clear
12:55 PM 82.4 °F 81.4 °F 53.6 °F 37% 30.16 in 10.0 mi SSW 15.0 mph 20.7 mph N/A   Clear
1:15 PM 82.4 °F 81.4 °F 53.6 °F 37% 30.16 in 10.0 mi South 15.0 mph 20.7 mph N/A   Clear
1:35 PM 82.4 °F 81.4 °F 53.6 °F 37% 30.15 in 10.0 mi SSW 11.5 mph 19.6 mph N/A   Scattered Clouds
1:55 PM 82.4 °F 81.7 °F 55.4 °F 39% 30.15 in 10.0 mi SSW 11.5 mph 19.6 mph N/A   Scattered Clouds
2:15 PM 82.4 °F 81.7 °F 55.4 °F 39% 30.14 in 10.0 mi SSW 9.2 mph - N/A   Scattered Clouds
2:35 PM 84.2 °F 82.8 °F 53.6 °F 35% 30.13 in 10.0 mi SSW 17.3 mph - N/A   Scattered Clouds
2:55 PM 82.4 °F 81.4 °F 53.6 °F 37% 30.13 in 10.0 mi South 9.2 mph - N/A   Scattered Clouds
3:15 PM 82.4 °F 81.7 °F 55.4 °F 39% 30.13 in 10.0 mi South 11.5 mph 17.3 mph N/A   Scattered Clouds
3:35 PM 84.2 °F 82.8 °F 53.6 °F 35% 30.12 in 10.0 mi South 11.5 mph 19.6 mph N/A   Scattered Clouds
3:55 PM 82.4 °F 81.4 °F 53.6 °F 37% 30.12 in 10.0 mi South 15.0 mph 19.6 mph N/A   Scattered Clouds
4:15 PM 82.4 °F 81.7 °F 55.4 °F 39% 30.11 in 10.0 mi SSE 13.8 mph 18.4 mph N/A   Scattered Clouds
4:55 PM 82.4 °F 81.4 °F 53.6 °F 37% 30.11 in 10.0 mi South 12.7 mph 19.6 mph N/A   Scattered Clouds
5:15 PM 80.6 °F 80.3 °F 53.6 °F 39% 30.11 in 10.0 mi South 13.8 mph 19.6 mph N/A   Clear
5:35 PM 80.6 °F 80.5 °F 55.4 °F 42% 30.11 in 10.0 mi South 13.8 mph - N/A   Clear
5:55 PM 77.0 °F - 55.4 °F 47% 30.12 in 10.0 mi South 10.4 mph - N/A   Clear
6:15 PM 78.8 °F - 57.2 °F 47% 30.12 in 10.0 mi SSE 10.4 mph - N/A   Scattered Clouds
6:35 PM 75.2 °F - 57.2 °F 53% 30.12 in 10.0 mi SSE 8.1 mph - N/A   Scattered Clouds
6:55 PM 73.4 °F - 57.2 °F 57% 30.13 in 10.0 mi South 5.8 mph - N/A   Clear
7:15 PM 71.6 °F - 57.2 °F 60% 30.13 in 10.0 mi SSE 4.6 mph - N/A   Clear
7:35 PM 69.8 °F - 57.2 °F 64% 30.14 in 10.0 mi SSE 5.8 mph - N/A   Clear
7:55 PM 69.8 °F - 57.2 °F 64% 30.14 in 10.0 mi SSE 5.8 mph - N/A   Clear
8:15 PM 68.0 °F - 57.2 °F 68% 30.14 in 10.0 mi SSE 5.8 mph - N/A   Clear
8:35 PM 66.2 °F - 57.2 °F 73% 30.15 in 10.0 mi SSE 5.8 mph - N/A   Clear
8:55 PM 66.2 °F - 57.2 °F 73% 30.15 in 10.0 mi SE 6.9 mph - N/A   Clear
9:15 PM 66.2 °F - 57.2 °F 73% 30.15 in 10.0 mi SSE 8.1 mph - N/A   Clear
9:35 PM 66.2 °F - 57.2 °F 73% 30.16 in 10.0 mi SSE 8.1 mph - N/A   Clear
9:55 PM 66.2 °F - 57.2 °F 73% 30.16 in 10.0 mi SSE 8.1 mph - N/A   Clear
10:15 PM 66.2 °F - 57.2 °F 73% 30.16 in 10.0 mi SSE 8.1 mph - N/A   Clear
10:35 PM 64.4 °F - 57.2 °F 77% 30.16 in 10.0 mi SSE 8.1 mph - N/A   Clear
10:55 PM 64.4 °F - 57.2 °F 77% 30.16 in 10.0 mi SSE 6.9 mph - N/A   Clear
11:15 PM 64.4 °F - 57.2 °F 77% 30.17 in 10.0 mi SSE 6.9 mph - N/A   Clear
11:35 PM 62.6 °F - 57.2 °F 82% 30.17 in 10.0 mi SSE 6.9 mph - N/A   Clear
11:55 PM 62.6 °F - 57.2 °F 82% 30.17 in 10.0 mi SSE 6.9 mph - N/A   Clear